Regional Weather Roundup
Issued by NWS

Home | Current Version | Previous Version | Text Only | Print | Product List | Glossary On
Versions: 1 2 3 4 5 6 7 8 9 10 11 12 13 14 15 16 17 18 19 20 21 22 23 24 25 26 27 28 29 30 31 32 33 34 35 36 37 38 39 40 41 42 43 44 45 46 47 48 49 50
000
ASUS43 KLOT 300908
RWRIL

ILLINOIS REGIONAL WEATHER ROUNDUP
NATIONAL WEATHER SERVICE CHICAGO/ROMEOVILLE IL
400 AM CDT MON MAY 30 2016

NOTE: "FAIR" INDICATES FEW OR NO CLOUDS BELOW 12,000 FEET WITH NO
SIGNIFICANT WEATHER AND/OR OBSTRUCTIONS TO VISIBILITY.

* THESE STATIONS ARE NOT UNDER NWS QUALITY CONTROL. THEY ALSO MAY NOT
  REPORT WEATHER SUCH AS PRECIPITATION OR FOG.

ILZ001-002-007-009-015-016-024-301000-
NORTHWEST ILLINOIS

CITY           SKY/WX    TMP DP  RH WIND       PRES   REMARKS
MOLINE         CLOUDY    62  56  80 CALM      30.00F
STERLING*      PTCLDY    63  62  97 CALM      30.01F
SAVANNA*       CLEAR     61  61  98 CALM      30.00S FOG
$$

ILZ003-004-008-010-011-017-018-301000-
NORTH CENTRAL ILLINOIS

CITY           SKY/WX    TMP DP  RH WIND       PRES   REMARKS
ROCKFORD       MOCLDY    62  60  93 CALM      30.03S
FREEPORT*      CLEAR     60  57  91 CALM      30.02F
ROCHELLE*      CLOUDY    65  59  81 CALM      30.02S
DE KALB*       MOCLDY    63  59  87 W5        30.03S
$$

ILZ005-006-012>014-019>023-301000-
NORTHEAST ILLINOIS

CITY           SKY/WX    TMP DP  RH WIND       PRES   REMARKS
CHICAGO-OHARE  MOCLDY    66  58  75 W5        30.00S
CHICAGO-MIDWAY PTCLDY    67  57  70 SW6       30.00S
AURORA         CLOUDY    63  59  87 CALM      30.02R
LANSING*       CLEAR     61  56  83 CALM      30.01S
JOLIET*        CLEAR     60  58  94 CALM      30.02R
WAUKEGAN       CLEAR     63  58  83 SW3       29.99R
DUPAGE AIRPORT MOCLDY    63  59  87 CALM      30.01R
KANKAKEE*      CLEAR     59  56  91 CALM      30.03S
WHEELING       MOCLDY    66  56  70 W5        30.01S
MORRIS*        PTCLDY    63  56  79 CALM      30.01R
ROMEOVILLE*    PTCLDY    62  55  80 NW5       30.02R
NORTHERLY ISL    N/A     70  55  59 W7          N/A
NORTHERLY ISL    N/A     70  55  59 W7          N/A
$$

LMZ740>746-301000-
SOUTHERN LAKE MICHIGAN

STATION/POSITION SKY/WX   TEMP    WIND        PRES    VSBY  WAVE
                          AIR SEA DIR/SP/G                  HT/PER
                          (F)     (DEG/KT/KT) (MB)    (MI)  (FT/S)
SOUTHERN BUOY              56 51  250/  6/  8 1014.8R         0
WILMETTE HARBOR            61 56  270/  6/  8   N/A           0
HARRISON CRIB              73     270/ 10/ 11   N/A
BURNHAM HARBOR             70     260/  4/  7   N/A
CALUMET HARBOR             68     240/  3/  5 1015.3F
BURNS HARBOR               67     200/  6/  8 1016.3S
MICHIGAN CITY              67     190/  8/  8   N/A
MICHIGAN CITY 6N           62 58  210/  6/  6   N/A           0
ST. JOSEPH                 64 62  220/  6/  8   N/A           1
$$

ILZ025>027-034>036-040-047-049-050-058-095>099-301000-
WEST-CENTRAL ILLINOIS

CITY           SKY/WX    TMP DP  RH WIND       PRES   REMARKS
QUINCY         CLOUDY    65  62  90 S3        30.02F
GALESBURG*     CLOUDY    62  57  86 CALM      30.03S
MACOMB*        CLOUDY    64  60  88 CALM      30.04F
JACKSONVILLE*  CLOUDY    64  61  88 SE3       30.03F
PITTSFIELD*    PTCLDY    65  63  94 CALM      30.05S
$$

ILZ028>032-037-038-041>044-048-051>054-059>061-301000-
CENTRAL ILLINOIS

CITY           SKY/WX    TMP DP  RH WIND       PRES   REMARKS
PONTIAC        CLOUDY    62  59  88 CALM      30.03S
BLOOMINGTON    CLOUDY    68  59  73 W6        30.05S
DECATUR        PTCLDY    63  57  81 SW3       30.04F
PEORIA         CLOUDY    63  58  83 CALM      30.03F
LACON*         CLOUDY    60  57  91 CALM      30.01F
LINCOLN*       CLOUDY    63  60  89 CALM      30.04S
SPRINGFIELD    CLOUDY    64  60  87 CALM      30.04S
TAYLORVILLE    CLOUDY    62  59  91 CALM      30.05S
$$

ILZ033-039-045-046-055>057-062-063-301000-
EAST-CENTRAL ILLINOIS

CITY           SKY/WX    TMP DP  RH WIND       PRES   REMARKS
CHAMPAIGN      CLOUDY    62  57  83 CALM      30.04S
RANTOUL*       MOCLDY    65  61  86 CALM      30.04S
MATTOON        CLOUDY    66  58  75 CALM      30.05R
PARIS*         PTCLDY    60  58  94 CALM      30.06R
$$

ILZ079-100>102-301000-
SOUTHWEST ILLINOIS

CITY           SKY/WX    TMP DP  RH WIND       PRES   REMARKS
ALTON          CLEAR     61  60  97 CALM      30.04F
BELLEVILLE     CLOUDY    65  65 100 E2        30.03F
CAHOKIA*       PTCLDY    63  61  93 CALM      30.04S
SPARTA*        PTCLDY    64  62  93 CALM      30.06S
$$

ILZ064>066-069>071-074>076-080>082-084>086-088>090-092>094-301000-
SOUTH-CENTRAL ILLINOIS

CITY           SKY/WX    TMP DP  RH WIND       PRES   REMARKS
CARBONDALE     CLEAR     62  61  96 CALM      30.05S FOG
CAIRO*         CLEAR     64  64 100 CALM      30.04S
EFFINGHAM*     CLOUDY    62  62 100 CALM      30.06F
MARION         FOG       63  63 100 CALM      30.06R VSB 1
MT. VERNON     CLOUDY    59  54  82 CALM      30.05F
CENTRALIA*     CLEAR     64  64  99 CALM      30.04S
SALEM*         CLEAR     65  63  92 CALM      30.05S
METROPOLIS*    CLEAR     63  63 100 CALM      30.04F
$$

ILZ067-068-072-073-078-083-087-091-301000-
SOUTHEAST ILLINOIS

CITY           SKY/WX    TMP DP  RH WIND       PRES   REMARKS
LAWRENCEVILLE  CLEAR     64  63  96 CALM      30.05R
FLORA*         CLEAR     64  62  95 CALM      30.05S
FAIRFIELD*     CLOUDY    63  62  98 CALM      30.04F
HARRISBURG*      N/A     62  62  99 CALM      30.05S
ROBINSON*      PTCLDY    60  59  99 CALM      30.06S
CARMI*         CLEAR     64  63  97 N5        30.04S
$$

ABBREVIATIONS USED IN REMARKS
   TC - TEMPERATURE IN CELSIUS
  WCI - WIND CHILL INDEX
   HX - HEAT INDEX
  VSB - VISIBILITY
$$





USA.gov is the U.S. government's official web portal to all federal, state and local government web resources and services.